Home > Weather > Creston > Past weeks

Flag for Canada Past Weather in Creston, British Columbia, Canada — Yesterday and Last 2 Weeks

Now
83 °F

Warm.


Feels Like: 83 °F
Forecast: 62 / 87 °F
Wind: 13 mph from Northwest

Location: Creston

Current Time: Jul 25, 2016 at 5:42:44 PM

Latest Report: Jul 25, 2016 at 5:00 PM


Visibility: N/A

Pressure: 29.93 "Hg (27.91 "Hg at 617m altitude)

Humidity: 42%

Dew Point: 57 °F

Location of CrestonLocation

Past Weather in Creston — Graph

°F

Creston Temperature Yesterday

Maximum temperature yesterday: 85 °F (at 5:00 PM)
Minimum temperature yesterday: 55 °F (at 5:00 AM)
Average temperature yesterday: 70 °F

High & Low Weather Summary for the Past Weeks

 TemperatureHumidityPressure
High93 °F (Jul 25, 3:00 PM)97% (Jul 23, 5:00 AM)30.26 "Hg (Jul 23, 5:00 AM)
Low49 °F (Jul 14, 6:00 AM)22% (Jul 21, 6:00 PM)29.74 "Hg (Jul 10, 4:00 PM)
Average66 °F59%30.02 "Hg
* Reported Jul 10 4:00 PM — Jul 25 4:00 PM, Creston, Weather by CustomWeather, © 2016

Note: Actual official high and low records may vary slightly from our data, if they occured in-between our weather recording intervals... More about our weather records

Advertising

Creston Weather History for the Previous 24 Hours

Scroll right to see more
 ConditionsComfort  
Time TempWeatherWind HumidityBarometerVisibility
4:00 PM
Mon, Jul 25
93 °FHot.6 mph22%29.92 "HgN/A
3:00 PM93 °FHot.3 mph23%29.94 "HgN/A
2:00 PM88 °FHot.5 mph30%29.96 "HgN/A
1:00 PM83 °FWarm.3 mph40%29.98 "HgN/A
12:00 PM80 °FWarm.5 mph42%30.01 "HgN/A
11:00 AM78 °FWarm.1 mph48%30.03 "HgN/A
10:00 AM74 °FMild.2 mph56%30.05 "HgN/A
9:00 AM71 °FMild.1 mph61%30.06 "HgN/A
8:00 AM66 °FMild.2 mph71%30.06 "HgN/A
7:00 AM66 °FMild.1 mph65%30.06 "HgN/A
6:00 AM61 °FCool.1 mph71%30.06 "HgN/A
5:00 AM63 °FMild.3 mph67%30.04 "HgN/A
4:00 AM63 °FMild.2 mph67%30.03 "HgN/A
3:00 AM64 °FMild.2 mph64%30.02 "HgN/A
2:00 AM66 °FMild.5 mph60%30.01 "HgN/A
1:00 AM65 °FMild.2 mph61%30.01 "HgN/A
12:00 AM68 °FMild.3 mph56%30.00 "HgN/A
11:00 PM
Sun, Jul 24
69 °FMild.5 mph58%30.00 "HgN/A
10:00 PM71 °FMild.5 mph54%29.99 "HgN/A
9:00 PM74 °FMild.3 mph51%29.97 "HgN/A
8:00 PM81 °FWarm.1 mph45%29.96 "HgN/A
7:00 PM82 °FPleasantly warm.5 mph39%29.95 "HgN/A
6:00 PM84 °FPleasantly warm.7 mph36%29.96 "HgN/A
5:00 PM85 °FPleasantly warm.5 mph34%29.98 "HgN/A
Weather by CustomWeather, © 2016

See weather overviewHow to use our weather pages